Date String (YYYY-MM-DD hh:mm:ss) UTC,Instrument flags,Ambient pressure (hPa),Sample flow (lpm),Bypass flow (lpm),Sample temperature (°C),Ambient temperature (°C),ASC tube jacket temperature (°C),LED temperature (°C),Box temperature (°C),Sample RH (%),Span deviation,Mass concentration (μg/m³),Mass concentration (μg/m³),Mass concentration (μg/m³)
DateTimeUTC,F1_M11,P_M11,Q1_M11,Q2_M11,T1_M11,T2_M11,T3_M11,T4_M11,T5_M11,U1_M11,ZSPAN_M11,X0_M11,X2_M11,X1_M11
2021-12-26 21:00:00,,0806.2,5.00,0.00,21.6,20.8,00.0,30.7,23.2,09.3,0000.0,0001.33,0000.51,0000.18
2021-12-26 21:01:00,,0806.4,5.00,0.00,21.6,20.8,00.0,30.7,23.2,09.3,0000.0,0002.07,0000.54,0000.19
2021-12-26 21:02:00,,0806.2,4.99,0.00,21.5,20.8,00.0,30.7,23.1,09.2,0000.0,0002.25,0000.55,0000.19
2021-12-26 21:03:00,,0806.3,5.02,0.00,21.5,20.8,00.0,30.7,23.1,09.1,0000.0,0002.23,0000.55,0000.20
2021-12-26 21:04:00,,0806.4,5.00,0.00,21.5,20.8,00.0,30.7,23.1,09.2,0000.0,0002.31,0000.57,0000.20
2021-12-26 21:05:00,,0806.4,5.01,0.00,21.5,20.8,00.0,30.7,23.1,09.3,0000.0,0002.38,0000.58,0000.21
2021-12-26 21:06:00,,0806.4,4.99,0.00,21.5,20.8,00.0,30.7,23.1,09.3,0000.0,0002.18,0000.55,0000.21
2021-12-26 21:07:00,,0806.4,5.01,0.00,21.4,20.7,00.0,30.6,23.0,09.1,0000.0,0002.55,0000.54,0000.21
2021-12-26 21:08:00,,0806.3,5.00,0.00,21.4,20.7,00.0,30.6,22.9,09.1,0000.0,0002.87,0000.55,0000.21
2021-12-26 21:09:00,,0806.3,4.99,0.00,21.4,20.6,00.0,30.6,22.9,09.1,0000.0,0002.78,0000.54,0000.21
2021-12-26 21:10:00,,0806.4,4.99,0.00,21.3,20.6,00.0,30.6,22.9,09.2,0000.0,0002.77,0000.53,0000.21
2021-12-26 21:11:00,,0806.2,5.01,0.00,21.3,20.6,00.0,30.5,22.9,09.4,0000.0,0002.86,0000.52,0000.21
2021-12-26 21:12:00,,0806.2,4.99,0.00,21.3,20.6,00.0,30.5,22.9,09.5,0000.0,0003.06,0000.53,0000.22
2021-12-26 21:13:00,,0806.4,5.00,0.00,21.4,21.1,00.0,30.5,23.1,09.5,0000.0,0002.93,0000.51,0000.22
2021-12-26 21:14:00,,0806.3,5.00,0.00,21.5,22.0,00.0,30.6,23.4,09.2,0000.0,0002.97,0000.51,0000.22
2021-12-26 21:15:00,,0806.3,5.00,0.00,21.7,22.6,00.0,30.6,23.7,09.1,0000.0,0002.88,0000.49,0000.21
2021-12-26 21:16:00,,0806.5,5.00,0.00,21.7,22.3,00.0,30.6,23.6,08.9,0000.0,0002.79,0000.48,0000.21
2021-12-26 21:17:00,,0806.3,5.00,0.00,21.7,22.0,00.0,30.7,23.5,08.6,0000.0,0003.14,0000.50,0000.21
2021-12-26 21:18:00,,0806.4,5.00,0.00,21.7,21.7,00.0,30.7,23.3,08.4,0000.0,0003.06,0000.51,0000.21
2021-12-26 21:19:00,,0806.5,5.00,0.00,21.6,21.5,00.0,30.7,23.3,08.8,0000.0,0002.69,0000.47,0000.20
2021-12-26 21:20:00,,0806.5,5.01,0.00,21.6,21.3,00.0,30.6,23.3,08.9,0000.0,0002.85,0000.46,0000.20
2021-12-26 21:21:00,,0806.5,5.01,0.00,21.6,21.2,00.0,30.6,23.2,09.0,0000.0,0002.84,0000.45,0000.20
2021-12-26 21:22:00,,0806.6,4.98,0.00,21.5,21.0,00.0,30.6,23.1,09.1,0000.0,0002.71,0000.45,0000.19
2021-12-26 21:23:00,,0806.5,5.00,0.00,21.5,20.8,00.0,30.6,23.1,09.1,0000.0,0002.74,0000.45,0000.18
2021-12-26 21:24:00,,0806.6,5.01,0.00,21.4,20.7,00.0,30.6,23.0,09.1,0000.0,0002.92,0000.45,0000.19
2021-12-26 21:25:00,,0806.5,5.01,0.00,21.4,20.7,00.0,30.6,22.9,09.2,0000.0,0002.86,0000.44,0000.18
2021-12-26 21:26:00,,0806.6,4.99,0.00,21.4,20.6,00.0,30.5,22.9,09.1,0000.0,0002.84,0000.43,0000.18
2021-12-26 21:27:00,,0806.6,5.01,0.00,21.3,20.5,00.0,30.5,22.9,09.2,0000.0,0002.88,0000.44,0000.18
2021-12-26 21:28:00,,0806.8,4.98,0.00,21.3,20.6,00.0,30.5,22.8,09.3,0000.0,0002.59,0000.41,0000.18
2021-12-26 21:29:00,,0806.8,5.00,0.00,21.3,20.5,00.0,30.5,22.9,09.4,0000.0,0002.39,0000.43,0000.19
2021-12-26 21:30:00,,0806.8,5.01,0.00,21.3,20.5,00.0,30.5,22.8,09.4,0000.0,0002.36,0000.48,0000.20
2021-12-26 21:31:00,,0806.8,4.98,0.00,21.3,20.5,00.0,30.4,22.8,09.4,0000.0,0002.28,0000.52,0000.21
2021-12-26 21:32:00,,0806.8,5.01,0.00,21.2,20.6,00.0,30.4,22.8,09.5,0000.0,0002.30,0000.53,0000.22
2021-12-26 21:33:00,,0806.9,4.99,0.00,21.2,20.6,00.0,30.4,22.8,09.4,0000.0,0002.31,0000.54,0000.22
2021-12-26 21:34:00,,0807.0,5.02,0.00,21.2,20.5,00.0,30.4,22.8,09.4,0000.0,0001.48,0000.54,0000.21
2021-12-26 21:35:00,,0807.0,4.99,0.00,21.2,20.5,00.0,30.4,22.8,09.4,0000.0,0001.39,0000.54,0000.21
2021-12-26 21:36:00,,0807.1,5.00,0.00,21.2,20.5,00.0,30.4,22.8,09.4,0000.0,0001.42,0000.55,0000.21
2021-12-26 21:37:00,,0807.1,5.00,0.00,21.2,20.5,00.0,30.4,22.8,09.4,0000.0,0001.67,0000.59,0000.22
2021-12-26 21:38:00,,0807.1,5.00,0.00,21.2,20.5,00.0,30.3,22.7,09.4,0000.0,0002.55,0000.62,0000.22
2021-12-26 21:39:00,,0807.1,5.00,0.00,21.2,20.5,00.0,30.3,22.7,09.6,0000.0,0002.68,0000.62,0000.22
2021-12-26 21:40:00,,0807.2,5.02,0.00,21.1,20.5,00.0,30.3,22.6,09.8,0000.0,0002.64,0000.60,0000.22
2021-12-26 21:41:00,,0807.2,4.99,0.00,21.1,20.4,00.0,30.3,22.6,10.0,0000.0,0002.55,0000.58,0000.23
2021-12-26 21:42:00,,0807.2,5.01,0.00,21.1,20.5,00.0,30.3,22.6,10.2,0000.0,0002.55,0000.59,0000.26
2021-12-26 21:43:00,,0807.1,4.99,0.00,21.2,21.2,00.0,30.3,22.9,10.1,0000.0,0002.57,0000.62,0000.29
2021-12-26 21:44:00,,0807.2,4.99,0.00,21.3,22.2,00.0,30.4,23.3,10.0,0000.0,0002.60,0000.59,0000.30
2021-12-26 21:45:00,,0807.3,5.01,0.00,21.5,22.7,00.0,30.4,23.6,10.0,0000.0,0002.52,0000.57,0000.30
2021-12-26 21:46:00,,0807.3,5.00,0.00,21.6,22.5,00.0,30.4,23.5,10.1,0000.0,0002.37,0000.56,0000.30
2021-12-26 21:47:00,,0807.3,5.00,0.00,21.6,22.2,00.0,30.4,23.4,10.6,0000.0,0002.53,0000.56,0000.30
2021-12-26 21:48:00,,0807.3,5.01,0.00,21.6,21.9,00.0,30.5,23.4,10.7,0000.0,0002.45,0000.54,0000.30
2021-12-26 21:49:00,,0807.4,5.00,0.00,21.6,21.7,00.0,30.5,23.3,10.8,0000.0,0001.53,0000.49,0000.30
2021-12-26 21:50:00,,0807.4,5.01,0.00,21.6,21.5,00.0,30.5,23.3,10.9,0000.0,0001.27,0000.51,0000.30
2021-12-26 21:51:00,,0807.6,4.99,0.00,21.6,21.4,00.0,30.5,23.3,10.9,0000.0,0001.33,0000.54,0000.29
2021-12-26 21:52:00,,0807.8,5.00,0.00,21.6,21.3,00.0,30.5,23.3,11.1,0000.0,0001.36,0000.53,0000.28
2021-12-26 21:53:00,,0808.0,5.00,0.00,21.6,21.3,00.0,30.5,23.2,11.5,0000.0,0001.34,0000.48,0000.24
2021-12-26 21:54:00,,0808.2,5.01,0.00,21.6,21.2,00.0,30.5,23.2,11.5,0000.0,0001.36,0000.46,0000.21
2021-12-26 21:55:00,,0808.3,5.00,0.00,21.5,21.1,00.0,30.5,23.2,11.5,0000.0,0001.33,0000.48,0000.20
2021-12-26 21:56:00,,0808.6,5.00,0.00,21.5,21.0,00.0,30.5,23.1,11.6,0000.0,0001.35,0000.50,0000.21
2021-12-26 21:57:00,,0808.6,5.01,0.00,21.5,21.0,00.0,30.5,23.2,11.7,0000.0,0001.31,0000.49,0000.21
2021-12-26 21:58:00,,0808.7,4.99,0.00,21.5,21.0,00.0,30.5,23.2,11.6,0000.0,0001.23,0000.50,0000.22
2021-12-26 21:59:00,,0808.9,5.01,0.00,21.5,21.0,00.0,30.5,23.2,11.6,0000.0,0001.23,0000.53,0000.22
